Showing default

SNUGLITE, 43784

Orbit data source: Space-Track

SNUGLITE, 43784 is a payload satellite owned by SNU (KR) in SSO that was launched on Mon, 03 Dec 2018 UTC via an FALCON 9 launch vehicle from the Air Force Western Test Range (AFWTR). Payloads include a variety of satellites, spacecraft, and rockets equipped with specific instruments for various scientific and technological missions. These include communications satellites like Starlink; space stations such as the ISS; scientific satellites like the Hubble; Earth observation satellites from companies like Planet Labs, Umbra, and HawkEye 360; GPS; miniature CubeSats for education and research; and military/defense satellites.

Loading next visibility...
SNUGLITE details
Identifier
43784, 2018-099AC
Orbit
SSO
Last TLE update10 hours ago
Origin
Flag of KRSNU (KR / SKOR)
ManufacturerSNU
MissionOperational Amateur Technology
Bus & MotorCUBESAT 2U, Unknown motor
Mass2 kg wet, 2 kg dry
Launch date (UTC)
2018-12-03 (6 years ago)
Launch vehicle
FALCON 9
Launch site
Air Force Western Test Range (AFWTR)
Object type
Payload
Rocket body
Debris
Shape & HBRBox + 1 Rod, 0.4 m
Radar Cross Section0.025 m², Small (<0.1 m²)

Expand to show TLE details & history

TLE from 10 hours ago
0 SNUGLITE
1 43784U 18099AC  24361.11593560  .00016951  00000-0  97864-3 0  9998
2 43784  97.4695  52.6945 0004288  29.2936 330.8535 15.12390227331581
Epoch: 2024-12-26T02:46Z
Definitive object data (Epoch: 2024-12-26T02:46:56.835Z)
Latitude
Longitude-84.14227°
Altitude529.404 km
Speed7.6 km/s
True Right ascension03h 30m 46s
True Declination0° 00' 00"
Sunlit
Object was in full shadow at TLE epoch
Visualization TLE readout
Latitude-4.34376°
Longitude-83.18714°
Altitude530.107 km
Speed7.599 km/s
Apparent Right ascension01h 58m 32s
Apparent Declination-24° 00' 11"
Sunlit
Object is in full shadow
Visualization observer readout
Local Sidereal Time11:38:55
Azimuth287.888° WNW
Elevation-56.681°
Doppler factor1
Orbital elements
Apogee altitude528.852 km
Perigee altitude522.931 km
Semi-major axis6,904.029 km
Eccentricity0.0004288
Inclination97.4695°
RAAN52.6945°
Arg. of periapsis29.2936°
True anomaly330.82956°
Mean anomaly330.8535°
Eccentric anomaly330.84153°
Mean motion3.78346 °/min
BSTAR0.00097864
Orbital period95.15 mins
Loading maneuver chart data...
Loading historical data...
Loading historical data...
Loading historical data...
Loading historical data...
Loading historical data...
Loading historical data...
Loading historical data...

SNUGLITE Visibility forecast

Observer location: undefined°, undefined

Span
Click to sort rows by Start time (UTC) header in descending order
Start Az.
Max El. time (UTC)
Max El. Az.
Max El.
End time (UTC)
End Az.
6 mins2024-12-26 16:03:26.191Z34.408° NE2024-12-26 16:06:26.191Z102.594° ESE30.515°2024-12-26 16:09:26.191Z163.291° S
5 mins2024-12-27 04:19:26.191Z211.841° SW2024-12-27 04:21:26.191Z256.853° W26.529°2024-12-27 04:24:26.191Z321.181° NNW
|